CZ-6A DEB, 61387

Orbit data source: Space-Track

CZ-6A DEB, 61387 is space debris in LEO originally from a launch on Tue, 06 Aug 2024 UTC launched from the Taiyaun Space Center, China (TSC). Debris objects in space refer to the collection of defunct objects orbiting the Earth. Examples of debris include non-operational satellites, rocket bodies, and fragments generated from explosions, collisions, or faulty payload assembly.

Loading next visibility...
Identifier
61387, 2024-140XC
Orbit
LEO
Country
Flag of CNCN / PRC
Related business
Manufacturer
SAST
Mission
Spacecraft
Bus & Motor
Unknown
Mass
Unknown
Launch date (UTC)
2024-08-06 (2 years ago)
Launch vehicle
Unknown
Launch site
Taiyaun Space Center, China (TSC)
Object type
Payload
Rocket body
Debris
Shape & HBR
Unknown shape, 0.1 m
Radar Cross Section
Small (<0.1 m²)

Expand to show TLE details & history
Last TLE update: 16 hours ago

TLE from 16 hours ago
0 CZ-6A DEB
1 61387U 24140XC  26118.45578632  .00002620  00000-0  11023-2 0  9993
2 61387  89.0039 280.4651 0038344 323.7639  36.0957 14.25171398 85393
Epoch: 2026-04-28T10:56Z
TLE epoch observation values (Epoch: 2026-04-28T10:56:19.938Z)
Latitude
-0.00001°
Longitude
-100.04882°
Altitude
788.744 km
Speed
7.471 km/s
True Right ascension
18h 41m 51s
True Declination
0° 00' 00"
Sunlit
Object was in daylight at epoch
Visualization orbit readout
Latitude
Unknown
Longitude
Unknown
Altitude
Unknown
Speed
Unknown
Apparent Right ascension
Unknown
Apparent Declination
Unknown
Sunlit
N/A
Visualization observer readout
Local Sidereal Time
10:08:36
Azimuth
Unknown
Elevation
Unknown
Doppler factor
Unknown
Orbital elements
Apogee altitude
832.403 km
Perigee altitude
777.318 km
Semi-major axis
7,182.997 km
Eccentricity
0.00383
Inclination
89.0039°
RAAN
280.4651°
Arg. of periapsis
323.7639°
True anomaly
36.35557°
Mean anomaly
36.0957°
Eccentric anomaly
36.22553°
Mean motion
3.56521 °/min
Orbital period
100.98 mins
BSTAR
0.0011023
Loading maneuver chart data...
Computing Atmospheric mass density...

Documentation

Showing up to 5 results
|